CES11RX RJSS-RJTT

Flight info

Callsign CES11RX
Flight time 0h 47m
Altitude 32000
Route IXE Y88 DAIGO Y10 GODIN
Aircraft MD11/H-SDE1E2E3FGHIJ2J3J4J5M1RWXY/LB1D1

Departure

Time 2026-04-24 02:36
Airport Sendai Airport (RJSS)

Arrival

Time 2026-04-24 03:23
Airport Tokyo Haneda International Airport (RJTT)
Time Latitude Longitude Altitude Speed Heading
2026-04-24 02:12 38.13858 140.92523 20 ft 0 kts 173°
2026-04-24 02:26 38.13865 140.92522 20 ft 4 kts 173°
2026-04-24 02:26 38.13892 140.92518 22 ft 4 kts 173°
2026-04-24 02:26 38.13919 140.92514 21 ft 4 kts 181°
2026-04-24 02:27 38.13945 140.92518 21 ft 4 kts 195°
2026-04-24 02:27 38.13970 140.92529 22 ft 4 kts 210°
2026-04-24 02:27 38.13985 140.92541 22 ft 0 kts 215°
2026-04-24 02:30 38.13982 140.92537 20 ft 1 kts 223°
2026-04-24 02:31 38.13975 140.92515 20 ft 5 kts 255°
2026-04-24 02:31 38.13971 140.92431 20 ft 14 kts 265°
2026-04-24 02:31 38.13956 140.92265 22 ft 23 kts 261°
2026-04-24 02:31 38.13933 140.92048 20 ft 26 kts 262°
2026-04-24 02:32 38.13909 140.91819 20 ft 27 kts 262°
2026-04-24 02:32 38.13886 140.91586 21 ft 27 kts 263°
2026-04-24 02:32 38.13862 140.91348 20 ft 27 kts 262°
2026-04-24 02:32 38.13837 140.91108 20 ft 28 kts 262°
2026-04-24 02:33 38.13811 140.90867 20 ft 28 kts 262°
2026-04-24 02:33 38.13785 140.90624 20 ft 28 kts 263°
2026-04-24 02:33 38.13760 140.90380 20 ft 28 kts 263°
2026-04-24 02:33 38.13736 140.90146 20 ft 26 kts 262°
2026-04-24 02:34 38.13728 140.89956 22 ft 16 kts 289°
2026-04-24 02:34 38.13801 140.89897 24 ft 10 kts 350°
2026-04-24 02:34 38.13858 140.89909 28 ft 8 kts 28°
2026-04-24 02:34 38.13882 140.89961 26 ft 6 kts 73°
2026-04-24 02:35 38.13884 140.89980 23 ft 0 kts 81°
2026-04-24 02:35 38.13892 140.90046 23 ft 34 kts 82°
2026-04-24 02:36 38.13988 140.90968 58 ft 165 kts 84°
2026-04-24 02:36 38.14144 140.92444 1505 ft 162 kts 84°
2026-04-24 02:36 38.14272 140.93835 3439 ft 152 kts 85°
2026-04-24 02:36 38.14368 140.95123 5338 ft 147 kts 83°
2026-04-24 02:37 38.14516 140.96662 6198 ft 203 kts 81°
2026-04-24 02:37 38.14744 140.98582 7099 ft 234 kts 79°
2026-04-24 02:37 38.14732 141.00814 7625 ft 279 kts 102°
2026-04-24 02:37 38.13819 141.02933 9194 ft 276 kts 129°
2026-04-24 02:38 38.12304 141.04615 10088 ft 295 kts 149°
2026-04-24 02:38 38.10501 141.06103 10727 ft 331 kts 142°
2026-04-24 02:38 38.08949 141.08383 11675 ft 345 kts 123°
2026-04-24 02:38 38.07733 141.10929 13131 ft 344 kts 121°
2026-04-24 02:39 38.06603 141.13782 13534 ft 380 kts 116°
2026-04-24 02:39 38.05561 141.16950 14448 ft 394 kts 113°
2026-04-24 02:39 38.04588 141.20132 15756 ft 396 kts 113°
2026-04-24 02:39 38.03541 141.23478 16421 ft 415 kts 118°
2026-04-24 02:40 38.01995 141.26559 17479 ft 414 kts 137°
2026-04-24 02:40 37.99777 141.28806 18567 ft 407 kts 158°
2026-04-24 02:40 37.97152 141.29971 19657 ft 395 kts 178°
2026-04-24 02:40 37.94452 141.30040 20728 ft 384 kts 195°
2026-04-24 02:41 37.91914 141.29152 21733 ft 376 kts 209°
2026-04-24 02:41 37.89535 141.27769 22714 ft 376 kts 212°
2026-04-24 02:41 37.87170 141.26328 23713 ft 380 kts 211°
2026-04-24 02:41 37.84732 141.24978 24655 ft 385 kts 209°
2026-04-24 02:42 37.82216 141.23743 25592 ft 390 kts 208°
2026-04-24 02:42 37.79638 141.22598 26476 ft 395 kts 207°
2026-04-24 02:42 37.77030 141.21518 27512 ft 393 kts 206°
2026-04-24 02:42 37.74449 141.20494 28705 ft 387 kts 206°
2026-04-24 02:43 37.71898 141.19500 29826 ft 381 kts 207°
2026-04-24 02:43 37.69381 141.18529 30759 ft 380 kts 206°
2026-04-24 02:43 37.66840 141.17540 31124 ft 383 kts 207°
2026-04-24 02:43 37.64355 141.16581 31491 ft 375 kts 208°
2026-04-24 02:44 37.61868 141.15626 31852 ft 373 kts 208°
2026-04-24 02:44 37.59389 141.14681 31966 ft 369 kts 208°
2026-04-24 02:44 37.57002 141.13775 31980 ft 346 kts 208°
2026-04-24 02:44 37.54740 141.12924 31998 ft 340 kts 209°
2026-04-24 02:45 37.52429 141.11981 32005 ft 360 kts 209°
2026-04-24 02:45 37.49975 141.10985 32003 ft 380 kts 208°
2026-04-24 02:45 37.47385 141.09957 31994 ft 399 kts 208°
2026-04-24 02:45 37.44678 141.08897 31987 ft 414 kts 207°
2026-04-24 02:46 37.39146 141.06794 31989 ft 414 kts 207°
2026-04-24 02:46 37.33771 141.04768 31981 ft 379 kts 207°
2026-04-24 02:47 37.31332 141.03867 31976 ft 363 kts 208°
2026-04-24 02:47 37.28918 141.02942 31975 ft 355 kts 209°
2026-04-24 02:47 37.24272 141.01128 31978 ft 352 kts 209°
2026-04-24 02:48 37.19600 140.99316 31980 ft 352 kts 209°
2026-04-24 02:48 37.15093 140.97150 31969 ft 337 kts 220°
2026-04-24 02:49 37.13285 140.95395 31969 ft 323 kts 232°
2026-04-24 02:49 37.11800 140.93289 31974 ft 321 kts 236°
2026-04-24 02:49 37.09079 140.88885 31974 ft 320 kts 238°
2026-04-24 02:50 37.06358 140.84486 31969 ft 321 kts 237°
2026-04-24 02:50 37.03593 140.80108 31964 ft 320 kts 237°
2026-04-24 02:51 37.00851 140.75791 31972 ft 318 kts 237°
2026-04-24 02:51 36.98077 140.71459 31971 ft 319 kts 237°
2026-04-24 02:52 36.95295 140.67106 31973 ft 320 kts 237°
2026-04-24 02:52 36.92528 140.62767 31967 ft 319 kts 237°
2026-04-24 02:53 36.89752 140.58451 31970 ft 319 kts 236°
2026-04-24 02:53 36.86984 140.54137 31973 ft 319 kts 237°
2026-04-24 02:54 36.84207 140.49814 31969 ft 319 kts 237°
2026-04-24 02:54 36.81413 140.45504 31963 ft 318 kts 237°
2026-04-24 02:55 36.78639 140.41200 31969 ft 318 kts 237°
2026-04-24 02:55 36.75767 140.37014 31967 ft 324 kts 230°
2026-04-24 02:56 36.73914 140.35338 31971 ft 336 kts 219°
2026-04-24 02:56 36.71691 140.34235 31880 ft 348 kts 208°
2026-04-24 02:56 36.69314 140.33564 30417 ft 357 kts 205°
2026-04-24 02:56 36.66813 140.33095 28860 ft 370 kts 200°
2026-04-24 02:57 36.64232 140.32676 27259 ft 377 kts 199°
2026-04-24 02:57 36.61616 140.32236 25589 ft 383 kts 198°
2026-04-24 02:57 36.58961 140.31769 23836 ft 388 kts 198°
2026-04-24 02:57 36.56275 140.31269 22067 ft 392 kts 197°
2026-04-24 02:58 36.53583 140.30756 20569 ft 389 kts 197°
2026-04-24 02:58 36.50924 140.30243 19087 ft 384 kts 196°
2026-04-24 02:58 36.48298 140.29726 17659 ft 381 kts 196°
2026-04-24 02:58 36.45706 140.29207 16828 ft 366 kts 196°
2026-04-24 02:59 36.43376 140.28517 16690 ft 323 kts 207°
2026-04-24 02:59 36.41545 140.27235 16518 ft 287 kts 225°
2026-04-24 02:59 36.40267 140.25471 15753 ft 273 kts 244°
2026-04-24 02:59 36.39576 140.23326 14815 ft 268 kts 255°
2026-04-24 03:00 36.39130 140.21078 13890 ft 272 kts 259°
2026-04-24 03:00 36.38724 140.18786 13127 ft 272 kts 259°
2026-04-24 03:00 36.38316 140.16487 12376 ft 273 kts 259°
2026-04-24 03:00 36.37898 140.14177 11629 ft 274 kts 259°
2026-04-24 03:01 36.37473 140.11885 10895 ft 277 kts 259°
2026-04-24 03:01 36.37031 140.09555 10307 ft 275 kts 259°
2026-04-24 03:01 36.36607 140.07337 10173 ft 256 kts 260°
2026-04-24 03:01 36.36198 140.05264 9936 ft 244 kts 260°
2026-04-24 03:02 36.35728 140.03255 9479 ft 245 kts 250°
2026-04-24 03:02 36.34695 140.01562 9071 ft 251 kts 220°
2026-04-24 03:02 36.33066 140.00791 8699 ft 257 kts 185°
2026-04-24 03:02 36.31279 140.00917 8347 ft 260 kts 171°
2026-04-24 03:03 36.29489 140.01310 8066 ft 259 kts 168°
2026-04-24 03:03 36.27721 140.01740 8011 ft 260 kts 167°
2026-04-24 03:03 36.25951 140.02167 8001 ft 259 kts 168°
2026-04-24 03:03 36.24176 140.02581 8003 ft 259 kts 168°
2026-04-24 03:04 36.22402 140.02993 8004 ft 260 kts 168°
2026-04-24 03:04 36.20625 140.03405 7998 ft 259 kts 168°
2026-04-24 03:04 36.18856 140.03848 7996 ft 259 kts 163°
2026-04-24 03:04 36.17269 140.04849 7992 ft 253 kts 136°
2026-04-24 03:05 36.16055 140.06396 8008 ft 252 kts 126°
2026-04-24 03:05 36.14936 140.08055 8003 ft 251 kts 125°
2026-04-24 03:05 36.13828 140.09729 8003 ft 251 kts 125°
2026-04-24 03:05 36.12725 140.11402 7996 ft 252 kts 125°
2026-04-24 03:06 36.11618 140.13075 8005 ft 251 kts 125°
2026-04-24 03:06 36.10435 140.14667 7992 ft 255 kts 139°
2026-04-24 03:06 36.08927 140.15828 8004 ft 257 kts 149°
2026-04-24 03:06 36.07333 140.16828 8001 ft 258 kts 151°
2026-04-24 03:07 36.05741 140.17791 7997 ft 257 kts 152°
2026-04-24 03:07 36.04132 140.18757 8005 ft 258 kts 152°
2026-04-24 03:07 36.02491 140.19641 7991 ft 259 kts 163°
2026-04-24 03:07 36.00707 140.19968 8005 ft 260 kts 176°
2026-04-24 03:08 35.98897 140.20055 7998 ft 260 kts 178°
2026-04-24 03:08 35.95863 140.20141 8002 ft 260 kts 179°
2026-04-24 03:08 35.94048 140.20178 8001 ft 261 kts 179°
2026-04-24 03:09 35.92236 140.20123 7989 ft 261 kts 189°
2026-04-24 03:09 35.90582 140.19315 7976 ft 255 kts 221°
2026-04-24 03:09 35.89499 140.17662 7999 ft 246 kts 246°
2026-04-24 03:09 35.88772 140.15741 7995 ft 249 kts 252°
2026-04-24 03:10 35.88123 140.13809 7868 ft 245 kts 252°
2026-04-24 03:10 35.87472 140.11865 7461 ft 245 kts 252°
2026-04-24 03:10 35.86824 140.09933 7089 ft 243 kts 252°
2026-04-24 03:10 35.86178 140.08009 6711 ft 243 kts 252°
2026-04-24 03:11 35.85536 140.06093 6337 ft 241 kts 252°
2026-04-24 03:11 35.84888 140.04167 6048 ft 237 kts 252°
2026-04-24 03:11 35.84249 140.02320 6007 ft 239 kts 252°
2026-04-24 03:11 35.83611 140.00439 5992 ft 240 kts 252°
2026-04-24 03:12 35.82968 139.98537 5987 ft 240 kts 252°
2026-04-24 03:12 35.82319 139.96635 5992 ft 241 kts 252°
2026-04-24 03:12 35.81669 139.94756 5992 ft 239 kts 252°
2026-04-24 03:12 35.81012 139.92857 5984 ft 240 kts 252°
2026-04-24 03:13 35.80358 139.90960 5972 ft 239 kts 252°
2026-04-24 03:13 35.79728 139.89063 5974 ft 238 kts 257°
2026-04-24 03:13 35.79554 139.87096 5969 ft 226 kts 284°
2026-04-24 03:13 35.79943 139.85238 5985 ft 225 kts 293°
2026-04-24 03:14 35.80424 139.83393 5980 ft 225 kts 294°
2026-04-24 03:14 35.80901 139.81562 5969 ft 225 kts 290°
2026-04-24 03:14 35.81237 139.79665 5974 ft 227 kts 286°
2026-04-24 03:14 35.81522 139.77744 5971 ft 229 kts 286°
2026-04-24 03:15 35.81800 139.75823 5972 ft 227 kts 285°
2026-04-24 03:15 35.82045 139.73904 5969 ft 230 kts 281°
2026-04-24 03:15 35.82105 139.71928 5971 ft 232 kts 276°
2026-04-24 03:15 35.82105 139.69967 5984 ft 231 kts 275°
2026-04-24 03:16 35.82110 139.67990 5976 ft 228 kts 275°
2026-04-24 03:16 35.81950 139.66164 5930 ft 202 kts 259°
2026-04-24 03:16 35.81254 139.64668 5938 ft 205 kts 228°
2026-04-24 03:16 35.80020 139.63823 5828 ft 203 kts 195°
2026-04-24 03:17 35.78623 139.63650 5215 ft 193 kts 173°
2026-04-24 03:17 35.77442 139.64167 4824 ft 181 kts 148°
2026-04-24 03:17 35.76320 139.64847 4601 ft 179 kts 148°
2026-04-24 03:17 35.75212 139.65525 4363 ft 178 kts 148°
2026-04-24 03:18 35.74116 139.66233 4105 ft 177 kts 144°
2026-04-24 03:18 35.73059 139.66978 3847 ft 174 kts 142°
2026-04-24 03:18 35.72015 139.67715 3586 ft 171 kts 143°
2026-04-24 03:18 35.70978 139.68444 3356 ft 172 kts 143°
2026-04-24 03:19 35.69956 139.69165 3127 ft 163 kts 143°
2026-04-24 03:19 35.69003 139.69828 2863 ft 155 kts 143°
2026-04-24 03:19 35.68081 139.70485 2699 ft 152 kts 142°
2026-04-24 03:19 35.67175 139.71138 2485 ft 150 kts 143°
2026-04-24 03:20 35.66276 139.71780 2294 ft 150 kts 144°
2026-04-24 03:20 35.65368 139.72425 2075 ft 150 kts 145°
2026-04-24 03:20 35.64475 139.73063 1881 ft 148 kts 146°
2026-04-24 03:20 35.63591 139.73697 1672 ft 146 kts 146°
2026-04-24 03:21 35.62717 139.74316 1501 ft 145 kts 147°
2026-04-24 03:21 35.61845 139.74926 1293 ft 143 kts 148°
2026-04-24 03:21 35.60971 139.75544 1122 ft 151 kts 148°
2026-04-24 03:21 35.60093 139.76177 916 ft 140 kts 148°
2026-04-24 03:22 35.59276 139.76753 638 ft 134 kts 149°
2026-04-24 03:22 35.58417 139.77362 510 ft 141 kts 150°
2026-04-24 03:22 35.57527 139.77973 349 ft 148 kts 146°
2026-04-24 03:22 35.56694 139.78569 135 ft 137 kts 144°
2026-04-24 03:23 35.55905 139.79139 36 ft 114 kts 147°
2026-04-24 03:23 35.55332 139.79549 35 ft 77 kts 150°
2026-04-24 03:23 35.54983 139.79796 37 ft 39 kts 149°
2026-04-24 03:23 35.54771 139.79912 35 ft 28 kts 166°
2026-04-24 03:24 35.54635 139.79927 33 ft 14 kts 187°
2026-04-24 03:24 35.54584 139.79855 30 ft 9 kts 274°
2026-04-24 03:24 35.54621 139.79801 32 ft 9 kts 323°
2026-04-24 03:24 35.54678 139.79756 30 ft 11 kts 328°
2026-04-24 03:25 35.54746 139.79709 32 ft 12 kts 330°
2026-04-24 03:25 35.54814 139.79660 33 ft 11 kts 329°
2026-04-24 03:25 35.54888 139.79608 32 ft 13 kts 331°
2026-04-24 03:25 35.54969 139.79551 33 ft 13 kts 329°
2026-04-24 03:26 35.55051 139.79492 33 ft 14 kts 330°
2026-04-24 03:26 35.55140 139.79429 35 ft 16 kts 330°
2026-04-24 03:26 35.55239 139.79359 34 ft 17 kts 330°
2026-04-24 03:26 35.55344 139.79285 34 ft 18 kts 330°
2026-04-24 03:27 35.55457 139.79205 32 ft 19 kts 329°
2026-04-24 03:27 35.55577 139.79119 32 ft 20 kts 330°
2026-04-24 03:27 35.55702 139.79031 33 ft 21 kts 330°
2026-04-24 03:27 35.55743 139.78978 33 ft 4 kts 279°
2026-04-24 03:28 35.55734 139.78931 32 ft 8 kts 247°
2026-04-24 03:28 35.55699 139.78856 30 ft 13 kts 239°
2026-04-24 03:28 35.55658 139.78757 34 ft 12 kts 256°
2026-04-24 03:28 35.55691 139.78676 32 ft 12 kts 321°
2026-04-24 03:29 35.55770 139.78616 31 ft 15 kts 329°
2026-04-24 03:29 35.55864 139.78549 29 ft 17 kts 330°
2026-04-24 03:29 35.55969 139.78475 30 ft 18 kts 330°
2026-04-24 03:29 35.56074 139.78401 30 ft 16 kts 330°
2026-04-24 03:30 35.56141 139.78358 32 ft 4 kts 347°
2026-04-24 03:30 35.56162 139.78365 32 ft 3 kts 21°
2026-04-24 03:30 35.56172 139.78372 32 ft 1 kts 35°
2026-04-24 03:30 35.56174 139.78377 32 ft 2 kts 53°
2026-04-24 03:31 35.56187 139.78402 32 ft 4 kts 55°
2026-04-24 03:31 35.56199 139.78428 32 ft 3 kts 60°
2026-04-24 03:31 35.56200 139.78430 32 ft 0 kts 60°